Location: Balsareny
(41.8670°N, 1.8830°E)
Time: 21:57:09
(UTC+01:00)

Hubble Space Telescope - Visible Passes

Search period start: 14 November 2019 00:00
Search period end: 24 November 2019 00:00
Orbit: 536 x 540 km, 28.5° (Epoch: 14 November)

Date Brightness Start Highest point End Pass type
(mag) Time Alt. Az. Time Alt. Az. Time Alt. Az.
21 Nov 3.4 18:45:53 10° S 18:46:14 10° S 18:46:36 10° SSE visible
22 Nov 3.3 18:34:18 10° S 18:35:30 11° S 18:36:42 10° SSE visible
23 Nov 3.3 18:23:14 10° SSW 18:24:46 12° S 18:26:18 10° SSE visible
23 Nov 3.6 20:03:45 10° SSW 20:04:09 11° SSW 20:04:09 11° SSW visible
